Weather in Aparri

Philippines     18˚20′51″N   121˚38′47″E
temp.,
°C
wind,
m/s
gust,
m/s
humid.,
%
clouds,
%
prec.,
mm/h
press.,
hPa
HPBL,
m
16 january, sat
sat1623:00+22˚ne3781100 0.1 1013428
02:00+22˚ne367794 0.1 1012423
05:00+22˚ne4775100 0.0 1012598
08:00+22˚ne4882100 0.1 1014717
11:00+24˚ne477677 0.0 1013866
14:00+24˚ne357487 0.1 1011846
17:00+23˚ne377848 0.0 1011435
20:00+22˚e237762 0.0 1014179
17 january, sun
sun1723:00+20˚sse118623 0.0 101377
02:00+19˚ssw119012 0.0 101332
05:00+20˚wnw119056 0.1 101256
08:00+22˚ne259266 1.2 1015352
11:00+22˚ne61191100 2.4 1015823
14:00+22˚ne61190100 3.6 1014921
17:00+21˚ne61190100 1.1 1013826
20:00+21˚ne61293100 3.0 1016816
18 january, mon
mon1823:00+21˚ne51195100 3.4 1016728
02:00+21˚ne41092100 5.9 1015588
05:00+21˚ne389198 1.0 1014406
08:00+21˚ene369399 2.8 1016299
11:00+21˚ne5109499 2.1 1016696
14:00+21˚ne51191100 2.9 1014838
17:00+21˚ene51186100 0.2 1014842
20:00+21˚ene51086100 0.3 1015643
19 january, tue
tue1923:00+21˚ene51088100 0.1 1015681
02:00+21˚ene41088100 0.3 1014666
05:00+21˚ene51088100 0.2 1014728
08:00+21˚ene51189100 0.5 1016788
11:00+21˚ene41092100 1.0 1016802
14:00+22˚ene51086100 1.5 1014915
17:00+22˚ene4885100 0.1 1014562
20:00+22˚ene3888100 0.2 1016437
20 january, wed
wed2023:00+22˚ene2589100 0.3 1015340
02:00+22˚ne3695100 0.8 1014323
05:00+22˚ne4896100 0.9 1013467
08:00+23˚ne4996100 1.8 1014549
11:00+23˚ene4895100 2.1 1014372
14:00+24˚ene3792100 4.3 1012613
17:00+25˚ene358994 1.1 1012326
20:00+23˚e239588 3.3 1013170